CEB821 RPLL-RPUV

Flight info

Callsign CEB821
Flight time 0h 40m
Altitude 27000
Route HARBO1 HARBO DCT TIMON W15 RAGAY W15A NGA
Aircraft A20N/M-SDE2E3FGHIRWXY/LB1

Departure

Time 2026-05-06 12:52
Airport Ninoy Aquino International Airport (RPLL)

Arrival

Time 2026-05-06 13:32
Airport Virac Airport (RPUV)
Time Latitude Longitude Altitude Speed Heading
2026-05-06 12:10 14.51858 121.01328 51 ft 0 kts 46°
2026-05-06 12:39 14.51857 121.01326 51 ft 2 kts 46°
2026-05-06 12:39 14.51846 121.01314 51 ft 2 kts 45°
2026-05-06 12:40 14.51836 121.01304 51 ft 2 kts 46°
2026-05-06 12:40 14.51825 121.01292 50 ft 2 kts 46°
2026-05-06 12:40 14.51815 121.01282 50 ft 2 kts 46°
2026-05-06 12:40 14.51808 121.01274 50 ft 2 kts 45°
2026-05-06 12:41 14.51795 121.01266 50 ft 2 kts 14°
2026-05-06 12:41 14.51780 121.01265 50 ft 2 kts 349°
2026-05-06 12:41 14.51766 121.01270 50 ft 2 kts 324°
2026-05-06 12:41 14.51760 121.01276 50 ft 1 kts 310°
2026-05-06 12:42 14.51757 121.01279 50 ft 0 kts 314°
2026-05-06 12:44 14.51770 121.01266 50 ft 3 kts 315°
2026-05-06 12:44 14.51797 121.01238 49 ft 6 kts 315°
2026-05-06 12:45 14.51837 121.01196 49 ft 9 kts 315°
2026-05-06 12:45 14.51890 121.01144 47 ft 12 kts 316°
2026-05-06 12:45 14.52037 121.00992 42 ft 17 kts 318°
2026-05-06 12:46 14.52128 121.00899 40 ft 19 kts 314°
2026-05-06 12:46 14.52224 121.00797 38 ft 20 kts 315°
2026-05-06 12:46 14.52321 121.00695 36 ft 16 kts 315°
2026-05-06 12:46 14.52405 121.00607 35 ft 16 kts 315°
2026-05-06 12:47 14.52472 121.00539 33 ft 9 kts 315°
2026-05-06 12:47 14.52496 121.00508 33 ft 3 kts 280°
2026-05-06 12:47 14.52483 121.00476 33 ft 5 kts 229°
2026-05-06 12:47 14.52458 121.00448 33 ft 0 kts 225°
2026-05-06 12:48 14.52456 121.00446 33 ft 0 kts 225°
2026-05-06 12:48 14.52448 121.00438 33 ft 2 kts 225°
2026-05-06 12:48 14.52430 121.00420 33 ft 4 kts 225°
2026-05-06 12:48 14.52406 121.00397 33 ft 5 kts 207°
2026-05-06 12:49 14.52370 121.00401 33 ft 6 kts 140°
2026-05-06 12:49 14.52365 121.00406 33 ft 0 kts 137°
2026-05-06 12:51 14.52360 121.00410 33 ft 6 kts 137°
2026-05-06 12:51 14.52150 121.00628 36 ft 78 kts 133°
2026-05-06 12:51 14.51615 121.01180 50 ft 135 kts 135°
2026-05-06 12:51 14.50914 121.01934 359 ft 150 kts 130°
2026-05-06 12:52 14.50195 121.02728 903 ft 152 kts 132°
2026-05-06 12:52 14.49466 121.03508 1460 ft 154 kts 131°
2026-05-06 12:52 14.48720 121.04313 1951 ft 159 kts 130°
2026-05-06 12:52 14.47946 121.05154 2248 ft 173 kts 131°
2026-05-06 12:53 14.47104 121.06069 2542 ft 189 kts 130°
2026-05-06 12:53 14.46188 121.07148 2847 ft 204 kts 121°
2026-05-06 12:53 14.45546 121.08534 3160 ft 223 kts 109°
2026-05-06 12:53 14.44982 121.10088 3561 ft 241 kts 108°
2026-05-06 12:54 14.44406 121.11758 4066 ft 256 kts 107°
2026-05-06 12:54 14.43797 121.13532 4606 ft 270 kts 109°
2026-05-06 12:54 14.43009 121.15319 5445 ft 274 kts 114°
2026-05-06 12:54 14.42147 121.17068 6312 ft 277 kts 115°
2026-05-06 12:55 14.41288 121.18802 7138 ft 280 kts 114°
2026-05-06 12:55 14.40441 121.20525 7942 ft 282 kts 114°
2026-05-06 12:55 14.39560 121.22337 8832 ft 283 kts 114°
2026-05-06 12:55 14.38690 121.24143 9651 ft 286 kts 114°
2026-05-06 12:56 14.37801 121.25998 10404 ft 290 kts 114°
2026-05-06 12:56 14.36890 121.27904 10862 ft 305 kts 114°
2026-05-06 12:56 14.35934 121.29909 11231 ft 323 kts 114°
2026-05-06 12:56 14.34926 121.32022 11537 ft 341 kts 114°
2026-05-06 12:57 14.33883 121.34205 11878 ft 355 kts 114°
2026-05-06 12:57 14.32791 121.36487 12475 ft 360 kts 115°
2026-05-06 12:57 14.31703 121.38757 13118 ft 363 kts 115°
2026-05-06 12:57 14.30587 121.41088 13740 ft 366 kts 115°
2026-05-06 12:58 14.29462 121.43438 14330 ft 369 kts 115°
2026-05-06 12:58 14.28319 121.45826 14906 ft 373 kts 115°
2026-05-06 12:58 14.27189 121.48188 15455 ft 376 kts 115°
2026-05-06 12:58 14.26012 121.50645 16021 ft 379 kts 115°
2026-05-06 12:59 14.24849 121.53074 16548 ft 382 kts 115°
2026-05-06 12:59 14.23669 121.55539 17056 ft 386 kts 115°
2026-05-06 12:59 14.22478 121.58025 17563 ft 389 kts 115°
2026-05-06 12:59 14.21262 121.60561 18066 ft 392 kts 115°
2026-05-06 13:00 14.20052 121.63084 18551 ft 395 kts 115°
2026-05-06 13:00 14.18852 121.65586 19015 ft 398 kts 115°
2026-05-06 13:00 14.17685 121.68031 19466 ft 401 kts 115°
2026-05-06 13:00 14.16459 121.70598 19924 ft 405 kts 115°
2026-05-06 13:01 14.15246 121.73134 20371 ft 407 kts 115°
2026-05-06 13:01 14.14029 121.75674 20824 ft 410 kts 115°
2026-05-06 13:01 14.12799 121.78238 21264 ft 413 kts 115°
2026-05-06 13:01 14.11560 121.80815 21702 ft 415 kts 115°
2026-05-06 13:02 14.10315 121.83407 22129 ft 418 kts 115°
2026-05-06 13:02 14.09045 121.86047 22558 ft 421 kts 116°
2026-05-06 13:02 14.07790 121.88657 22967 ft 424 kts 115°
2026-05-06 13:02 14.06513 121.91308 23374 ft 427 kts 116°
2026-05-06 13:03 14.05239 121.93958 23769 ft 430 kts 116°
2026-05-06 13:03 14.03934 121.96609 24158 ft 433 kts 116°
2026-05-06 13:03 14.02596 121.99285 24540 ft 436 kts 117°
2026-05-06 13:03 14.01233 122.02000 24917 ft 439 kts 117°
2026-05-06 13:04 13.99868 122.04723 25392 ft 439 kts 117°
2026-05-06 13:04 13.98513 122.07426 25868 ft 439 kts 117°
2026-05-06 13:04 13.97102 122.10246 26298 ft 441 kts 117°
2026-05-06 13:04 13.95703 122.13043 26686 ft 443 kts 117°
2026-05-06 13:05 13.94288 122.15871 26891 ft 446 kts 117°
2026-05-06 13:05 13.92864 122.18718 26900 ft 446 kts 117°
2026-05-06 13:05 13.91461 122.21518 26902 ft 446 kts 117°
2026-05-06 13:05 13.90073 122.24287 26906 ft 446 kts 117°
2026-05-06 13:06 13.88660 122.27093 26911 ft 446 kts 117°
2026-05-06 13:06 13.87231 122.29913 26910 ft 446 kts 117°
2026-05-06 13:06 13.85803 122.32739 26911 ft 447 kts 117°
2026-05-06 13:06 13.84374 122.35577 26915 ft 447 kts 117°
2026-05-06 13:07 13.82947 122.38418 26914 ft 447 kts 117°
2026-05-06 13:07 13.81525 122.41251 26913 ft 447 kts 117°
2026-05-06 13:07 13.80121 122.44053 26913 ft 447 kts 117°
2026-05-06 13:07 13.78708 122.46871 26912 ft 447 kts 117°
2026-05-06 13:08 13.77290 122.49696 26910 ft 447 kts 117°
2026-05-06 13:08 13.75857 122.52548 26890 ft 447 kts 117°
2026-05-06 13:08 13.74502 122.55270 26632 ft 446 kts 115°
2026-05-06 13:08 13.73282 122.58170 26202 ft 443 kts 110°
2026-05-06 13:09 13.72346 122.61121 25635 ft 439 kts 104°
2026-05-06 13:09 13.71659 122.64038 25000 ft 438 kts 102°
2026-05-06 13:09 13.71048 122.66908 24361 ft 436 kts 101°
2026-05-06 13:09 13.70448 122.69796 23912 ft 430 kts 101°
2026-05-06 13:10 13.69822 122.72793 23426 ft 425 kts 101°
2026-05-06 13:10 13.69221 122.75648 22945 ft 421 kts 101°
2026-05-06 13:10 13.68606 122.78548 22446 ft 417 kts 101°
2026-05-06 13:10 13.67984 122.81467 21948 ft 413 kts 101°
2026-05-06 13:11 13.67374 122.84321 21456 ft 409 kts 102°
2026-05-06 13:11 13.66763 122.87172 20958 ft 406 kts 102°
2026-05-06 13:11 13.66158 122.89993 20459 ft 402 kts 102°
2026-05-06 13:11 13.65557 122.92787 19955 ft 399 kts 102°
2026-05-06 13:12 13.64960 122.95569 19453 ft 396 kts 102°
2026-05-06 13:12 13.64372 122.98299 18953 ft 392 kts 102°
2026-05-06 13:12 13.63785 123.01029 18452 ft 389 kts 102°
2026-05-06 13:12 13.63207 123.03716 17950 ft 386 kts 102°
2026-05-06 13:13 13.62631 123.06388 17453 ft 383 kts 102°
2026-05-06 13:13 13.62054 123.09061 16956 ft 380 kts 102°
2026-05-06 13:13 13.61486 123.11688 16461 ft 377 kts 102°
2026-05-06 13:13 13.60929 123.14285 16030 ft 374 kts 101°
2026-05-06 13:14 13.60376 123.16888 15533 ft 371 kts 101°
2026-05-06 13:14 13.59829 123.19464 14964 ft 369 kts 101°
2026-05-06 13:14 13.59276 123.22052 14403 ft 367 kts 101°
2026-05-06 13:14 13.58729 123.24606 13864 ft 364 kts 101°
2026-05-06 13:15 13.58189 123.27146 13331 ft 361 kts 100°
2026-05-06 13:15 13.57713 123.29656 12803 ft 359 kts 99°
2026-05-06 13:15 13.57277 123.32196 12282 ft 355 kts 98°
2026-05-06 13:15 13.56905 123.34692 11769 ft 352 kts 97°
2026-05-06 13:16 13.56551 123.37145 11250 ft 350 kts 97°
2026-05-06 13:16 13.56194 123.39632 10726 ft 347 kts 97°
2026-05-06 13:16 13.55846 123.42051 10216 ft 344 kts 97°
2026-05-06 13:16 13.55494 123.44483 9754 ft 339 kts 97°
2026-05-06 13:17 13.55152 123.46834 9554 ft 327 kts 97°
2026-05-06 13:17 13.54819 123.49115 9356 ft 315 kts 97°
2026-05-06 13:17 13.54497 123.51314 9160 ft 303 kts 97°
2026-05-06 13:17 13.54188 123.53412 8971 ft 293 kts 97°
2026-05-06 13:18 13.53893 123.55393 8782 ft 283 kts 97°
2026-05-06 13:18 13.53592 123.57406 8463 ft 279 kts 97°
2026-05-06 13:18 13.53300 123.59352 8094 ft 277 kts 97°
2026-05-06 13:18 13.53009 123.61281 7721 ft 275 kts 97°
2026-05-06 13:19 13.52719 123.63213 7439 ft 269 kts 97°
2026-05-06 13:19 13.52437 123.65087 7262 ft 259 kts 97°
2026-05-06 13:19 13.52165 123.66898 7091 ft 250 kts 97°
2026-05-06 13:19 13.51907 123.68607 6929 ft 242 kts 97°
2026-05-06 13:20 13.51650 123.70296 6766 ft 233 kts 97°
2026-05-06 13:20 13.51405 123.71893 6611 ft 225 kts 97°
2026-05-06 13:20 13.51165 123.73450 6406 ft 220 kts 97°
2026-05-06 13:20 13.50929 123.74998 6130 ft 219 kts 97°
2026-05-06 13:21 13.50690 123.76558 5847 ft 218 kts 97°
2026-05-06 13:21 13.50454 123.78084 5572 ft 216 kts 97°
2026-05-06 13:21 13.50215 123.79604 5298 ft 215 kts 97°
2026-05-06 13:21 13.49976 123.81105 5022 ft 214 kts 97°
2026-05-06 13:22 13.49735 123.82608 4744 ft 213 kts 97°
2026-05-06 13:22 13.49495 123.84091 4468 ft 212 kts 97°
2026-05-06 13:22 13.49251 123.85581 4229 ft 209 kts 97°
2026-05-06 13:22 13.49014 123.87009 4090 ft 202 kts 97°
2026-05-06 13:23 13.48778 123.88400 3943 ft 195 kts 97°
2026-05-06 13:23 13.48548 123.89751 3835 ft 183 kts 97°
2026-05-06 13:23 13.48336 123.90991 3703 ft 172 kts 97°
2026-05-06 13:23 13.48130 123.92178 3528 ft 163 kts 97°
2026-05-06 13:24 13.48078 123.93291 3339 ft 153 kts 73°
2026-05-06 13:24 13.48519 123.94241 3127 ft 142 kts 60°
2026-05-06 13:24 13.49008 123.95100 3004 ft 140 kts 71°
2026-05-06 13:24 13.49057 123.96104 3012 ft 141 kts 94°
2026-05-06 13:25 13.48892 123.97090 2907 ft 135 kts 98°
2026-05-06 13:25 13.48702 123.98023 2528 ft 138 kts 98°
2026-05-06 13:25 13.48499 123.98991 2162 ft 138 kts 98°
2026-05-06 13:25 13.48295 123.99936 1789 ft 138 kts 98°
2026-05-06 13:26 13.48088 124.00880 1534 ft 135 kts 98°
2026-05-06 13:26 13.47885 124.01826 1507 ft 136 kts 98°
2026-05-06 13:26 13.47696 124.02793 1502 ft 136 kts 91°
2026-05-06 13:26 13.47928 124.03714 1509 ft 136 kts 63°
2026-05-06 13:27 13.48417 124.04554 1507 ft 137 kts 58°
2026-05-06 13:27 13.48942 124.05382 1501 ft 137 kts 57°
2026-05-06 13:27 13.49465 124.06197 1496 ft 137 kts 57°
2026-05-06 13:27 13.49994 124.07019 1500 ft 137 kts 57°
2026-05-06 13:28 13.50518 124.07833 1498 ft 137 kts 57°
2026-05-06 13:28 13.51039 124.08648 1500 ft 137 kts 57°
2026-05-06 13:28 13.51559 124.09461 1498 ft 137 kts 57°
2026-05-06 13:28 13.52083 124.10283 1500 ft 137 kts 57°
2026-05-06 13:29 13.52609 124.11108 1499 ft 137 kts 57°
2026-05-06 13:29 13.52781 124.11378 1498 ft 137 kts 57°
2026-05-06 13:30 13.52914 124.11584 1491 ft 137 kts 58°
2026-05-06 13:30 13.53429 124.12417 1473 ft 137 kts 60°
2026-05-06 13:30 13.53899 124.13281 1465 ft 137 kts 62°
2026-05-06 13:30 13.54358 124.14146 1440 ft 138 kts 62°
2026-05-06 13:31 13.54809 124.15025 1240 ft 137 kts 64°
2026-05-06 13:31 13.55248 124.15895 1050 ft 137 kts 62°
2026-05-06 13:31 13.55700 124.16760 883 ft 136 kts 62°
2026-05-06 13:31 13.56137 124.17615 698 ft 135 kts 62°
2026-05-06 13:32 13.56568 124.18475 518 ft 135 kts 62°
2026-05-06 13:32 13.57015 124.19320 314 ft 133 kts 58°
2026-05-06 13:32 13.57485 124.20099 149 ft 122 kts 62°
2026-05-06 13:32 13.57783 124.20644 132 ft 44 kts 68°
2026-05-06 13:33 13.57856 124.20772 129 ft 15 kts 63°
2026-05-06 13:33 13.57899 124.20863 127 ft 5 kts 70°
2026-05-06 13:33 13.57906 124.20860 127 ft 1 kts 220°
2026-05-06 13:33 13.57906 124.20879 126 ft 5 kts 55°
2026-05-06 13:34 13.57940 124.20928 125 ft 11 kts 58°
2026-05-06 13:34 13.57984 124.21007 122 ft 9 kts 62°
2026-05-06 13:34 13.58003 124.21066 120 ft 8 kts 102°
2026-05-06 13:34 13.57978 124.21105 119 ft 7 kts 123°
2026-05-06 13:35 13.57983 124.21161 117 ft 1 kts 62°
2026-05-06 13:35 13.57983 124.21162 117 ft 0 kts 62°
2026-05-06 13:35 13.57989 124.21174 116 ft 3 kts 63°
2026-05-06 13:35 13.57985 124.21183 116 ft 3 kts 138°
2026-05-06 13:36 13.57957 124.21190 117 ft 5 kts 174°
2026-05-06 13:36 13.57954 124.21191 117 ft 0 kts 174°